Tracking 29892 objects as of 21-Nov-2024
HD Live streaming from Space Station
objects crossing your sky now

QIANFAN-5

Track QIANFAN-5 now!
10-day predictions


NORAD ID: 60383
Int'l Code: 2024-140E
Perigee: 1,004.5 km
Apogee: 1,028.5 km
Inclination: 89.0 °
Period: 105.3 minutes
Semi major axis: 7387 km
RCS: Unknown
Launch date: August 6, 2024
Source: People's Republic of China (PRC)
Launch site: Taiyaun Space Center, China (TSC)
Your satellite tracking list
Your tracking list is empty




NASA's NSSDC Master Catalog

Two Line Element Set (TLE):
1 60383U 24140E   24326.09927797  .00000079  00000-0  79404-4 0  9992
2 60383  88.9858 339.1288 0016214 222.3821 137.6088 13.67275240 15080
Source of the keplerian elements: AFSPC